User: anonymous   Login
Location: Brede
(50.9167°N, 0.6000°E)
Time: 06:14:10
(UTC+00:00)
Language:

Cosmos 2227 Rocket - Orbit

View from above orbital plane
View from above orbital plane
View from above satellite
View from above satellite

Ground track
Ground track

The orbit data is extracted from the following two-line orbital elements,

1 22285U 92093B   20292.93795746 +.00000066 +00000-0 +58347-4 0  9990
2 22285 071.0211 173.4591 0002394 048.9596 311.1734 14.15045367434807
Epoch (UTC): 18 October 2020 22:30:39
Eccentricity: 0.0002394
inclination: 71.0211°
perigee height: 840 km
apogee height: 844 km
right ascension of ascending node: 173.4591°
argument of perigee: 48.9596°
revolutions per day: 14.15045367
mean anomaly at epoch: 311.1734°
orbit number at epoch: 43480

The dashed part of the orbit path shows where the satellite is in the earth's shadow,  

DLR